Location: *
(50.2903°S, 172.5375°W)
Time: 06:15:22
(UTC+00:00)

SL-14 R/B - Pass Details

Date: 17 November 2019
Orbit: 519 x 554 km, 82.4° (Epoch: 10 December)

Event Time Altitude Azimuth Distance (km) Brightness Sun altitude
Rises 12:35:08 0° 191° (S) 2,748 7.9 -18.5°
Reaches altitude 10° 12:37:20 10° 190° (S) 1,841 6.9 -18.4°
Maximum altitude 12:41:24 90° 281° (W) 552 3.2 -18.1°
Enters shadow 12:42:49 39° 9° (N) 823 3.8 -18.1°
